User: anonymous   Login
Location: Unspecified
(0.0000°N, 0.0000°E)
Time: 19:27:40
(UTC+00:00)
Language:

Cosmos 1697 Rocket - Orbit

View from above orbital plane
View from above orbital plane
View from above satellite
View from above satellite

Ground track
Ground track

The orbit data is extracted from the following two-line orbital elements,

1 16182U 85097B   19287.74713358  .00000228  00000-0  13908-3 0  9998
2 16182  71.0054  20.5781 0009166 230.6254 215.9787 14.16245008756507
Epoch (UTC): 14 October 2019 17:55:52
Eccentricity: 0.0009166
inclination: 71.0054°
perigee height: 831 km
apogee height: 844 km
right ascension of ascending node: 20.5781°
argument of perigee: 230.6254°
revolutions per day: 14.16245008
mean anomaly at epoch: 215.9787°
orbit number at epoch: 75650

The dashed part of the orbit path shows where the satellite is in the earth's shadow,  

DLR